Location: *
(55.5817°S, 142.4781°W)
Time: 08:38:13
(UTC+00:00)

CZ-2C R/B - Pass Details

Date: 29 April 2025
Orbit: 421 x 451 km, 97.8° (Epoch: 18 May)

Event Time Altitude Azimuth Distance (km) Brightness Sun altitude
Rises 15:47:03 0° 41° (NE) 2,489 7.1 -9.3°
Reaches altitude 10° 15:49:13 10° 51° (NE) 1,619 6.4 -9.0°
Maximum altitude 15:52:20 32° 115° (ESE) 827 4.3 -8.6°
Drops below altitude 10° 15:55:29 10° 179° (S) 1,626 5.1 -8.2°
Sets 15:57:39 0° 188° (S) 2,502 5.9 -7.9°
